Back to catalog

STARLINK-32708

AliveCommunicationsVLEO
NORAD 62495·PAYLOAD·🇺🇸 United States

Launched Jan 6, 2025 from Cape Canaveral Space Force Station

Loading…

Next Passes (next 24 hours)

TLE

FreshSource: CelesTrak SupGP

Epoch: Sep 14, 2026, 21:06 UTC

1 62495C 25003J   26257.87965278 -.00014890  00000+0 -53920-3 0  2572
2 62495  43.0006 300.6770 0001538 267.7538 103.5130 15.27593068    19

Track STARLINK-32708 in real time with AllMySat

Download on the App Store